This demonstration page uses our WeatherBlox Daily Observations layout. Learn more.

38.89511, -77.03637

Hourly Observations for January 3, 2018

Temp ( °F °C ) Dew Point ( °F °C ) Humidity (%) Winds ( mph kmh ) Pressure ( in mb ) Visibility ( mi km ) Precip ( " mm )
12:52 am 00:52 Mostly Clear 19 -7.2 7 -13.9 59 59 Calm 30.4 1029 10 16.0934 0 0
1:52 am 01:52 Clear 20 -6.7 9 -12.8 62 62 Calm 30.39 1029 10 16.0934 0 0
2:52 am 02:52 Clear 17 -8.3 8 -13.3 68 68 SW 3 6 30.38 1029 10 16.0934 0 0
3:52 am 03:52 Clear 16 -8.9 9 -12.8 74 74 Calm 30.37 1029 10 16.0934 0 0
4:52 am 04:52 Clear 14 -10 6 -14.4 71 71 N 3 6 30.35 1028 10 16.0934 0 0
5:52 am 05:52 Mostly Clear 15 -9.4 8 -13.3 74 74 Calm 30.34 1028 10 16.0934 0 0
6:52 am 06:52 Mostly Clear 15 -9.4 10 -12.2 80 80 Calm 30.35 1028 10 16.0934 0 0
7:52 am 07:52 Partly Cloudy 18 -7.8 13 -10.6 81 81 Calm 30.34 1028 10 16.0934 0 0
8:52 am 08:52 Mostly Cloudy 20 -6.7 12 -11.1 71 71 NE 3 6 30.34 1028 10 16.0934 0 0
9:52 am 09:52 Mostly Cloudy 22 -5.6 13 -10.6 68 68 SSE 3 6 30.33 1027 10 16.0934 0 0
10:52 am 10:52 Cloudy 25 -3.9 8 -13.3 48 48 S 5 7 30.32 1027 10 16.0934 0 0
11:52 am 11:52 Cloudy 28 -2.2 8 -13.3 43 43 Calm 30.26 1025 10 16.0934 0 0
12:52 pm 12:52 Cloudy 32 0 7 -13.9 35 35 VRB 3 6 30.21 1023 10 16.0934 0 0
1:52 pm 13:52 Mostly Cloudy 32 0 7 -13.9 35 35 VRB 3 6 30.17 1022 10 16.0934 0 0
2:52 pm 14:52 Mostly Cloudy 35 1.7 6 -14.4 29 29 S 8 13 30.15 1021 10 16.0934 0 0
3:52 pm 15:52 Mostly Cloudy 34 1.1 3 -16.1 27 27 S 6 9 30.15 1021 10 16.0934 0 0
4:52 pm 16:52 Cloudy 33 0.6 2 -16.7 26 26 Calm 30.11 1020 10 16.0934 0 0
5:52 pm 17:52 Cloudy 32 0 7 -13.9 35 35 SE 8 13 30.13 1020 10 16.0934 0 0
6:52 pm 18:52 Cloudy 31 -0.6 12 -11.1 45 45 ESE 5 7 30.1 1019 10 16.0934 0 0
7:52 pm 19:52 Cloudy 31 -0.6 12 -11.1 45 45 ENE 3 6 30.08 1019 10 16.0934 0 0
8:52 pm 20:52 Cloudy 31 -0.6 13 -10.6 47 47 NNE 9 15 30.03 1017 10 16.0934 0 0
9:52 pm 21:52 Cloudy 30 -1.1 14 -10 51 51 NE 7 11 30.03 1017 10 16.0934 0 0
10:52 pm 22:52 Cloudy with Light Snow 30 -1.1 18 -7.8 61 61 E 8 13 29.99 1016 9 14.48406 0 0.0254
11:34 pm 23:34 Cloudy with Light Snow 28 -2.2 21 -6.1 75 75 ENE 10 17 29.97 1015 5 8.0467 0 0.0254
11:45 pm 23:45 Cloudy with Light Snow 27 -2.8 22 -5.6 81 81 ENE 9 15 29.97 1015 3 4.82802 0 0.0254
11:52 pm 23:52 Cloudy with Light Snow 27 -2.8 23 -5 85 85 NE 9 15 29.95 1014 3 4.82802 0 0.0254
11:56 pm 23:56 Cloudy with Light Snow 27 -2.8 23 -5 85 85 NE 10 17 29.94 1014 2.5 4.02335 0 0.0254

Powered by AerisWeather